[[{"header":{"parameterUnit":"m.s-1","parameterCategory":1,"la1":30.2991,"la2":30.254,"lo1":-89.0895,"lo2":-89.0444,"dy":0.0017,"dx":0.0017,"nx":28,"ny":28,"refTime":"2025-09-15T03:00:00:Z","depth":0,"parameterNumber":2,"parameterNumberName":"U-component_of_WINDS"},"data":[0,0,0,0,0,0,0,0,0,0,0,0,0,0,0,0,0,0,0,0,0,0,0,0,0,0,0,0,0,0,0,0,0,0,0,0,0,0,0,0,0,0,0,0,0,0,0,0,0,0,0,0,0,0,0,0,0,0,-1.3732,-1.3733,0,-1.3831,-1.3832,-1.3833,-1.3855,-1.3854,-1.3854,-1.3853,-1.3956,-1.3959,-1.3962,0,0,0,0,0,0,0,0,0,0,0,0,0,-1.3563,-1.3566,-1.3732,-1.3733,-1.3734,-1.3831,-1.3832,-1.3833,-1.3855,-1.3854,-1.3853,-1.3853,-1.3954,-1.3958,-1.3963,0,0,0,0,0,0,0,0,0,0,0,0,0,-1.3647,-1.3567,-1.3732,-1.3757,-1.376,-1.383,-1.3832,-1.3834,-1.3855,-1.3854,-1.3853,-1.3852,-1.3953,-1.3958,-1.3963,-1.4016,0,0,-1.3979,-1.3981,0,0,0,0,0,0,0,0,-1.3642,-1.3653,-1.3752,-1.3755,-1.3759,-1.383,-1.381,-1.3895,-1.3856,-1.3819,-1.3853,-1.3852,-1.3915,-1.3923,-1.3944,-1.4021,-1.4025,-1.3979,-1.3982,-1.3984,-1.3986,0,0,0,0,0,0,0,-1.3636,-1.3649,-1.3771,-1.3753,-1.3758,-1.3764,-1.3774,-1.3826,-1.3872,-1.3822,-1.3824,-1.3835,-1.3916,-1.3939,-1.3946,-1.4027,-1.3979,-1.3983,-1.3987,-1.3989,-1.4152,-1.4154,0,0,0,0,0,0,-1.3626,-1.3644,-1.3768,-1.3774,-1.3697,-1.3767,-1.3779,-1.3808,-1.3871,-1.388,-1.3836,-1.3836,-1.3931,-1.394,-1.395,-1.4016,-1.3984,-1.3989,-1.3992,-1.4151,-1.4153,-1.4154,0,0,0,0,0,0,-1.3622,-1.3637,-1.3764,-1.3709,-1.3726,-1.3771,-1.3803,-1.381,-1.3833,-1.3882,-1.389,-1.3851,-1.393,-1.3943,-1.3999,-1.402,-1.3991,-1.3996,-1.4149,-1.4151,-1.4153,-1.4149,0,0,0,0,0,0,-1.3617,-1.3635,-1.3655,-1.371,-1.3729,-1.3811,-1.3805,-1.3813,-1.3842,-1.3842,-1.3898,-1.3906,-1.393,-1.3992,-1.4004,-1.4027,-1.4,-1.4148,-1.415,-1.4153,-1.4148,-1.4151,-1.4153,0,0,0,0,0,-1.3611,-1.365,-1.3656,-1.3671,-1.3755,-1.3812,-1.3824,-1.3851,-1.3843,-1.3864,-1.3895,-1.3904,-1.4016,-1.3997,-1.4012,-1.4036,-1.4147,-1.415,-1.4152,-1.4146,-1.415,-1.4153,0,0,0,0,0,0,-1.3598,-1.3658,-1.3665,-1.3723,-1.3763,-1.3816,-1.3843,-1.3854,-1.3896,-1.3895,-1.3927,-1.394,-1.3994,-1.4021,-1.3999,-1.4091,-1.4081,-1.4087,-1.4071,-1.4075,-1.4078,-1.4071,-1.4004,0,0,0,0,0,-1.3602,-1.3643,-1.3693,-1.374,-1.3759,-1.3798,-1.3824,-1.3841,-1.3883,-1.39,-1.3936,-1.3976,-1.4021,-1.4049,-1.4093,-1.4151,-1.4164,-1.4175,-1.4178,-1.418,-1.4185,-1.4219,-1.4224,-1.4164,-1.4164,-1.4163,0,0,-1.361,-1.3648,-1.3672,-1.3738,-1.3771,-1.3813,-1.3812,-1.3856,-1.3888,-1.3907,-1.3963,-1.399,-1.4038,-1.4096,-1.4123,-1.4119,-1.4205,-1.4184,-1.4185,-1.4189,-1.4222,-1.4228,-1.4233,-1.4166,-1.4165,-1.4165,0,0,-1.3647,-1.368,-1.3723,-1.3755,-1.3804,-1.3829,-1.3839,-1.3891,-1.391,-1.3966,-1.3981,-1.402,-1.4095,-1.4129,-1.4156,-1.4206,-1.4215,-1.4219,-1.4234,-1.4266,-1.4271,-1.4276,-1.4294,-1.43,-1.4224,-1.4224,-1.4224,0,-1.3652,-1.3716,-1.3743,-1.3787,-1.3816,-1.3834,-1.3878,-1.3908,-1.3969,-1.3989,-1.3984,-1.4079,-1.4113,-1.4179,-1.4191,-1.4212,-1.4225,-1.4213,-1.4268,-1.4273,-1.4277,-1.4295,-1.4302,-1.4224,-1.4224,-1.4224,-1.4224,0,-1.372,-1.3764,-1.3792,-1.385,-1.3882,-1.3926,-1.396,-1.3989,-1.4003,-1.4029,-1.4086,-1.4127,-1.4179,-1.4196,-1.4211,-1.4265,-1.4261,-1.4262,-1.4253,-1.4283,-1.43,-1.4307,-1.4224,-1.4224,-1.4224,-1.4224,0,0,-1.3753,-1.3824,-1.3834,-1.3861,-1.3916,-1.3951,-1.3995,-1.4046,-1.4071,-1.4112,-1.415,-1.4214,-1.4215,-1.4245,-1.4264,-1.4292,-1.4329,-1.4289,-1.4291,-1.4296,-1.4392,-1.4391,-1.4399,-1.4336,-1.4337,-1.4338,-1.4388,0,-1.3797,-1.3877,-1.3902,-1.3969,-1.4011,-1.4028,-1.4067,-1.4105,-1.4131,-1.417,-1.4198,-1.4243,-1.424,-1.4259,-1.4287,-1.4319,-1.4349,-1.4315,-1.4373,-1.4374,-1.4361,-1.4408,-1.4408,-1.4453,-1.4395,-1.4396,-1.4397,0,-1.386,-1.3902,-1.3973,-1.4022,-1.4041,-1.4075,-1.4124,-1.4161,-1.4205,-1.4221,-1.4255,-1.4271,-1.4319,-1.4306,-1.4373,-1.4349,-1.4374,-1.4393,-1.4396,-1.4403,-1.4388,-1.4417,-1.4468,-1.4475,-1.4408,-1.4407,-1.4406,0,-1.3878,-1.3952,-1.4004,-1.4026,-1.4085,-1.4109,-1.4135,-1.4177,-1.4206,-1.4249,-1.4268,-1.4315,-1.4341,-1.4378,-1.4407,-1.4395,-1.4471,-1.4461,-1.4487,-1.4486,-1.4503,-1.4501,-1.4559,-1.4517,-1.4517,-1.4517,-1.4517,0,-1.3926,-1.3969,-1.4013,-1.4045,-1.4093,-1.4122,-1.4169,-1.4196,-1.4234,-1.4272,-1.429,-1.4325,-1.4361,-1.4401,-1.4424,-1.4476,-1.4487,-1.4502,-1.4508,-1.4501,-1.4499,-1.4519,-1.4517,-1.4519,-1.4518,-1.4518,-1.4518,0,-1.3954,-1.3985,-1.4043,-1.4094,-1.4108,-1.4142,-1.4186,-1.4218,-1.4243,-1.4291,-1.4304,-1.4345,-1.4393,-1.4425,-1.4487,-1.4502,-1.4559,-1.4563,-1.4544,-1.4547,-1.4571,-1.4569,-1.4644,-1.4655,-1.4605,-1.4605,-1.4606,0,-1.3983,-1.4017,-1.4071,-1.4097,-1.4123,-1.4166,-1.4195,-1.4225,-1.4254,-1.4307,-1.4332,-1.4382,-1.4423,-1.4499,-1.4534,-1.4581,-1.4588,-1.4611,-1.4595,-1.4587,-1.4589,-1.4587,-1.4591,-1.4614,-1.4614,-1.4614,-1.4615,0,-1.4032,-1.4045,-1.4087,-1.4133,-1.4168,-1.4206,-1.4244,-1.4265,-1.4301,-1.4334,-1.4383,-1.4415,-1.4478,-1.4526,-1.4577,-1.4604,-1.4616,-1.4619,-1.4628,-1.4622,-1.4609,-1.4617,-1.4552,-1.4617,-1.4617,-1.4617,-1.4617,-1.4617,-1.4063,-1.4093,-1.4136,-1.4181,-1.4213,-1.4248,-1.4281,-1.431,-1.4352,-1.4405,-1.442,-1.4471,-1.4514,-1.4583,-1.4611,-1.4652,-1.4649,-1.4662,-1.4665,-1.4668,-1.4668,-1.4602,-1.4661,-1.4661,-1.4661,-1.4661,-1.4661,0,-1.4113,-1.4141,-1.4182,-1.4235,-1.4271,-1.4277,-1.432,-1.435,-1.4395,-1.4434,-1.4473,-1.453,-1.4577,-1.4616,-1.4665,-1.469,-1.4697,-1.4702,-1.4701,-1.4707,-1.4667,-1.4655,-1.4696,-1.4696,-1.4696,-1.4696,-1.4696,-1.4696,-1.4143,-1.4195,-1.4214,-1.4282,-1.431,-1.436,-1.4384,-1.4417,-1.4448,-1.451,-1.4549,-1.4573,-1.4612,-1.4664,-1.4708,-1.4718,-1.4736,-1.474,-1.4752,-1.4714,-1.471,-1.4706,-1.4695,-1.4743,-1.4743,-1.4788,-1.4789,-1.4789]},{"header":{"parameterUnit":"m.s-1","parameterCategory":1,"la1":30.2991,"la2":30.254,"lo1":-89.0895,"lo2":-89.0444,"dy":0.0017,"dx":0.0017,"nx":28,"ny":28,"refTime":"2025-09-15T03:00:00:Z","depth":0,"parameterNumber":3,"parameterNumberName":"V-component_of_WINDS"},"data":[0,0,0,0,0,0,0,0,0,0,0,0,0,0,0,0,0,0,0,0,0,0,0,0,0,0,0,0,0,0,0,0,0,0,0,0,0,0,0,0,0,0,0,0,0,0,0,0,0,0,0,0,0,0,0,0,0,0,1.2441,1.2441,0,1.241,1.241,1.2409,1.2345,1.2344,1.2342,1.2341,1.231,1.231,1.231,0,0,0,0,0,0,0,0,0,0,0,0,0,1.2446,1.2446,1.2441,1.2441,1.2441,1.241,1.241,1.2409,1.2345,1.2343,1.2342,1.234,1.231,1.231,1.231,0,0,0,0,0,0,0,0,0,0,0,0,0,1.2432,1.2446,1.2441,1.2405,1.2401,1.241,1.241,1.2409,1.2345,1.2343,1.2341,1.234,1.2309,1.231,1.2311,1.2353,0,0,1.2312,1.2312,0,0,0,0,0,0,0,0,1.2433,1.2432,1.2411,1.2407,1.2403,1.2379,1.24,1.239,1.2346,1.2367,1.2341,1.2339,1.2334,1.2333,1.2331,1.2351,1.235,1.2312,1.2313,1.2313,1.2313,0,0,0,0,0,0,0,1.2434,1.2433,1.2429,1.241,1.2406,1.239,1.2386,1.2398,1.2362,1.2365,1.236,1.2357,1.2332,1.2331,1.233,1.2349,1.2312,1.2313,1.2313,1.2313,1.2401,1.2403,0,0,0,0,0,0,1.244,1.2434,1.243,1.2428,1.2414,1.2392,1.2387,1.2389,1.2362,1.2355,1.2359,1.2354,1.2331,1.2329,1.2329,1.2375,1.2313,1.2313,1.2314,1.2399,1.2402,1.2404,0,0,0,0,0,0,1.2441,1.2441,1.2431,1.243,1.2427,1.2394,1.2396,1.2389,1.2388,1.2357,1.235,1.2364,1.2329,1.2328,1.2347,1.2373,1.2314,1.2314,1.2397,1.24,1.2403,1.2469,0,0,0,0,0,0,1.2441,1.2441,1.2457,1.2431,1.2428,1.245,1.2398,1.239,1.2389,1.2383,1.236,1.2355,1.2328,1.2346,1.2347,1.2373,1.2315,1.2394,1.2398,1.2402,1.2464,1.2474,1.2482,0,0,0,0,0,1.2441,1.2477,1.2458,1.2458,1.2447,1.2452,1.245,1.2418,1.2392,1.2407,1.2387,1.2355,1.237,1.2349,1.235,1.2375,1.2392,1.2397,1.2401,1.246,1.2472,1.2482,0,0,0,0,0,0,1.2507,1.2473,1.2451,1.2479,1.2469,1.2441,1.2459,1.2432,1.2429,1.2423,1.2384,1.2379,1.2403,1.2391,1.2368,1.2414,1.2376,1.2381,1.2421,1.2432,1.244,1.2442,1.2315,0,0,0,0,0,1.2525,1.2532,1.2502,1.253,1.2525,1.2493,1.2494,1.2471,1.2458,1.2454,1.2435,1.2424,1.2426,1.2429,1.2429,1.2463,1.2456,1.2481,1.249,1.2497,1.2501,1.2517,1.2527,1.2418,1.2418,1.2418,0,0,1.2562,1.2544,1.2551,1.2542,1.2531,1.2539,1.249,1.2501,1.2506,1.2455,1.2471,1.2458,1.2443,1.2469,1.248,1.246,1.253,1.2503,1.2509,1.2509,1.2523,1.2533,1.2542,1.2422,1.2421,1.2421,0,0,1.2633,1.262,1.2641,1.2631,1.2615,1.2594,1.2599,1.2575,1.2563,1.2579,1.2541,1.2547,1.2552,1.2543,1.2539,1.2606,1.2576,1.2607,1.2653,1.2669,1.2677,1.2685,1.2707,1.2716,1.2612,1.2612,1.2612,0,1.268,1.269,1.2656,1.2669,1.2666,1.262,1.2641,1.2633,1.2618,1.2617,1.2595,1.2599,1.2587,1.2609,1.2626,1.2624,1.2629,1.2609,1.2679,1.2686,1.2692,1.2713,1.2722,1.2616,1.2615,1.2615,1.2614,0,1.2749,1.2757,1.2776,1.2762,1.2761,1.2778,1.2746,1.275,1.2726,1.2707,1.2723,1.2706,1.2702,1.2706,1.2683,1.2725,1.2713,1.2686,1.2647,1.2707,1.2726,1.2734,1.2621,1.262,1.2618,1.2618,0,0,1.286,1.2827,1.2834,1.2827,1.2805,1.2811,1.2826,1.2821,1.2824,1.2816,1.2826,1.2831,1.2805,1.2801,1.2777,1.2791,1.2844,1.2762,1.2761,1.2776,1.2887,1.2907,1.2917,1.2825,1.2826,1.2827,1.2888,0,1.2925,1.2947,1.2917,1.2946,1.2952,1.2909,1.2922,1.291,1.2893,1.2895,1.2876,1.288,1.2846,1.2843,1.2855,1.2835,1.2865,1.283,1.2833,1.2834,1.2837,1.2927,1.2948,1.3007,1.2895,1.2897,1.2898,0,1.3003,1.2998,1.3028,1.3004,1.3005,1.3017,1.301,1.3013,1.2999,1.2985,1.298,1.2951,1.2964,1.2927,1.2943,1.292,1.2919,1.291,1.2911,1.2909,1.2869,1.2926,1.3025,1.3033,1.2909,1.2908,1.2908,0,1.3079,1.3079,1.3097,1.3092,1.3065,1.3074,1.3064,1.3048,1.3046,1.304,1.3039,1.3035,1.3032,1.303,1.3,1.2977,1.302,1.2981,1.3008,1.3009,1.3018,1.3017,1.3116,1.302,1.302,1.302,1.302,0,1.3154,1.3173,1.313,1.3141,1.3162,1.3127,1.3148,1.3133,1.3119,1.3126,1.3089,1.3096,1.3058,1.3061,1.3038,1.3054,1.3054,1.3042,1.3036,1.3045,1.3046,1.3043,1.3038,1.3022,1.3022,1.3021,1.3021,0,1.3241,1.3214,1.323,1.3203,1.3196,1.3213,1.319,1.3198,1.3178,1.3188,1.3188,1.3157,1.3158,1.3129,1.3125,1.311,1.3135,1.3123,1.314,1.3135,1.3164,1.3161,1.3263,1.3274,1.3173,1.3174,1.3174,0,1.329,1.3304,1.3279,1.328,1.3271,1.3275,1.3273,1.3239,1.3239,1.3224,1.3234,1.3233,1.323,1.3234,1.3211,1.3208,1.3193,1.3229,1.3193,1.3201,1.3192,1.3191,1.3192,1.3237,1.3238,1.3239,1.324,0,1.3379,1.3365,1.3364,1.3358,1.3357,1.3351,1.3343,1.3347,1.3309,1.3311,1.3312,1.331,1.3305,1.3304,1.3296,1.3285,1.3256,1.3252,1.3258,1.3266,1.3275,1.3269,1.316,1.3249,1.3248,1.3248,1.3247,1.3247,1.3448,1.3458,1.3441,1.3441,1.3431,1.3424,1.3431,1.3412,1.3412,1.3405,1.3385,1.339,1.3374,1.3361,1.3352,1.3355,1.3337,1.3346,1.3348,1.335,1.3355,1.3276,1.3353,1.3353,1.3353,1.3352,1.3352,0,1.3534,1.3521,1.3522,1.3511,1.3511,1.3484,1.3473,1.3475,1.3479,1.3467,1.3465,1.3465,1.3464,1.3441,1.3436,1.3443,1.3429,1.3443,1.3441,1.3439,1.3372,1.3366,1.3453,1.3453,1.3453,1.3453,1.3453,1.3453,1.3578,1.3593,1.3577,1.3587,1.3574,1.3577,1.3573,1.3566,1.3556,1.3559,1.3557,1.3542,1.3526,1.352,1.3517,1.351,1.351,1.3527,1.3516,1.3453,1.3443,1.3434,1.3429,1.3528,1.3528,1.3582,1.3583,1.3583]}]]